Time,TemperatureF,DewpointF,PressureIn,WindDirection,WindDirectionDegrees,WindSpeedMPH,WindSpeedGustMPH,Humidity,HourlyPrecipIn,Conditions,Clouds,dailyrainin,SoftwareType,DateUTC
2013-07-08 00:00:00,55.9,49.8,29.83,NW,314,1.0,2.0,80,0.00,,---,0.00,VWS V14.01,2013-07-08 07:00:00,
2013-07-08 00:05:00,55.9,50.2,29.85,WNW,291,4.0,5.0,81,0.00,,---,0.00,VWS V14.01,2013-07-08 07:05:00,
2013-07-08 00:10:00,55.8,50.4,29.87,North,349,2.0,6.0,82,0.00,,---,0.00,VWS V14.01,2013-07-08 07:10:00,
2013-07-08 00:15:00,55.8,50.1,29.87,NNW,329,3.0,6.0,81,0.00,,---,0.00,VWS V14.01,2013-07-08 07:15:00,
2013-07-08 00:20:00,55.8,50.1,29.86,NNW,339,1.0,6.0,81,0.00,,---,0.00,VWS V14.01,2013-07-08 07:20:00,
2013-07-08 00:25:00,55.7,50.3,29.86,NNW,339,4.0,6.0,82,0.00,,---,0.00,VWS V14.01,2013-07-08 07:25:00,
2013-07-08 00:30:00,55.8,50.1,29.83,NNW,339,4.0,4.0,81,0.00,,---,0.00,VWS V14.01,2013-07-08 07:30:00,
2013-07-08 00:35:00,55.6,49.9,29.86,NNW,329,1.0,5.0,81,0.00,,---,0.00,VWS V14.01,2013-07-08 07:35:00,
2013-07-08 00:40:00,55.7,50.3,29.84,NNW,340,4.0,5.0,82,0.00,,---,0.00,VWS V14.01,2013-07-08 07:40:00,
2013-07-08 00:45:00,55.6,49.9,29.88,NNW,341,1.0,5.0,81,0.00,,---,0.00,VWS V14.01,2013-07-08 07:45:00,
2013-07-08 00:51:00,55.7,50.0,29.84,NNW,341,0.0,5.0,81,0.00,,---,0.00,VWS V14.01,2013-07-08 07:51:00,
2013-07-08 00:56:00,55.6,49.9,29.86,NNW,341,2.0,5.0,81,0.00,,---,0.00,VWS V14.01,2013-07-08 07:56:00,
2013-07-08 01:01:00,55.7,50.3,29.88,NNW,341,2.0,3.0,82,0.00,,---,0.00,VWS V14.01,2013-07-08 08:01:00,
2013-07-08 01:06:00,55.6,50.2,29.88,NNW,340,2.0,3.0,82,0.00,,---,0.00,VWS V14.01,2013-07-08 08:06:00,
2013-07-08 01:11:00,55.5,49.8,29.84,NNW,341,0.0,4.0,81,0.00,,---,0.00,VWS V14.01,2013-07-08 08:11:00,
2013-07-08 01:16:00,55.5,49.8,29.88,NNW,341,1.0,4.0,81,0.00,,---,0.00,VWS V14.01,2013-07-08 08:16:00,
2013-07-08 01:21:00,55.5,49.8,29.84,NNW,341,2.0,4.0,81,0.00,,---,0.00,VWS V14.01,2013-07-08 08:21:00,
2013-07-08 01:26:00,55.4,50.0,29.85,NNW,341,1.0,5.0,82,0.00,,---,0.00,VWS V14.01,2013-07-08 08:26:00,
2013-07-08 01:31:00,55.4,50.0,29.84,NNW,341,2.0,3.0,82,0.00,,---,0.00,VWS V14.01,2013-07-08 08:31:00,
2013-07-08 01:36:00,55.2,49.5,29.84,NNW,341,1.0,4.0,81,0.00,,---,0.00,VWS V14.01,2013-07-08 08:36:00,
2013-07-08 01:41:00,55.1,49.7,29.88,NNW,341,4.0,4.0,82,0.00,,---,0.00,VWS V14.01,2013-07-08 08:41:00,
2013-07-08 01:46:00,55.0,49.6,29.83,NNW,341,1.0,4.0,82,0.00,,---,0.00,VWS V14.01,2013-07-08 08:46:00,
2013-07-08 01:51:00,55.1,50.0,29.84,NNW,341,2.0,5.0,83,0.00,,---,0.00,VWS V14.01,2013-07-08 08:51:00,
2013-07-08 01:56:00,55.1,50.0,29.86,NNW,341,2.0,5.0,83,0.00,,---,0.00,VWS V14.01,2013-07-08 08:56:00,
2013-07-08 02:01:00,55.1,50.0,29.85,NNW,340,3.0,5.0,83,0.00,,---,0.00,VWS V14.01,2013-07-08 09:01:00,
2013-07-08 02:06:00,55.1,50.0,29.84,NNW,341,1.0,5.0,83,0.00,,---,0.00,VWS V14.01,2013-07-08 09:06:00,
2013-07-08 02:12:00,55.1,50.0,29.86,NNW,340,1.0,5.0,83,0.00,,---,0.00,VWS V14.01,2013-07-08 09:12:00,
2013-07-08 02:17:00,55.0,50.3,29.88,NNW,341,1.0,5.0,84,0.00,,---,0.00,VWS V14.01,2013-07-08 09:17:00,
2013-07-08 02:22:00,55.1,50.0,29.84,NNW,340,1.0,5.0,83,0.00,,---,0.00,VWS V14.01,2013-07-08 09:22:00,
2013-07-08 02:27:00,55.1,50.4,29.85,NNW,341,0.0,5.0,84,0.00,,---,0.00,VWS V14.01,2013-07-08 09:27:00,
2013-07-08 02:32:00,55.1,50.0,29.85,NNW,341,1.0,3.0,83,0.00,,---,0.00,VWS V14.01,2013-07-08 09:32:00,
2013-07-08 02:37:00,55.0,50.3,29.88,NNW,341,0.0,3.0,84,0.00,,---,0.00,VWS V14.01,2013-07-08 09:37:00,
2013-07-08 02:42:00,55.1,50.0,29.86,NNW,341,1.0,4.0,83,0.00,,---,0.00,VWS V14.01,2013-07-08 09:42:00,
2013-07-08 02:47:00,55.0,49.9,29.89,NNW,341,0.0,4.0,83,0.00,,---,0.00,VWS V14.01,2013-07-08 09:47:00,
2013-07-08 02:52:00,55.0,49.9,29.88,NNW,341,0.0,4.0,83,0.00,,---,0.00,VWS V14.01,2013-07-08 09:52:00,
2013-07-08 02:57:00,55.0,49.9,29.89,NNW,341,0.0,4.0,83,0.00,,---,0.00,VWS V14.01,2013-07-08 09:57:00,
2013-07-08 03:02:00,55.0,49.9,29.89,NNW,341,3.0,3.0,83,0.00,,---,0.00,VWS V14.01,2013-07-08 10:02:00,
2013-07-08 03:07:00,55.1,50.4,29.85,NNW,341,0.0,3.0,84,0.00,,---,0.00,VWS V14.01,2013-07-08 10:07:00,
2013-07-08 03:12:00,55.1,50.4,29.85,NNW,341,0.0,3.0,84,0.00,,---,0.00,VWS V14.01,2013-07-08 10:12:00,
2013-07-08 03:17:00,55.0,49.9,29.84,NNW,341,0.0,3.0,83,0.00,,---,0.00,VWS V14.01,2013-07-08 10:17:00,
2013-07-08 03:22:00,55.1,50.4,29.89,NNW,341,1.0,3.0,84,0.00,,---,0.00,VWS V14.01,2013-07-08 10:22:00,
2013-07-08 03:27:00,55.1,50.4,29.89,NNW,341,0.0,3.0,84,0.00,,---,0.00,VWS V14.01,2013-07-08 10:27:00,
2013-07-08 03:32:00,55.1,50.4,29.89,NNW,341,0.0,2.0,84,0.00,,---,0.00,VWS V14.01,2013-07-08 10:32:00,
2013-07-08 03:38:00,55.1,50.0,29.85,NNW,341,0.0,3.0,83,0.00,,---,0.00,VWS V14.01,2013-07-08 10:38:00,
2013-07-08 03:43:00,55.1,50.0,29.88,NNW,341,0.0,3.0,83,0.00,,---,0.00,VWS V14.01,2013-07-08 10:43:00,
2013-07-08 03:48:00,54.9,49.5,29.85,NNW,341,0.0,3.0,82,0.00,,---,0.00,VWS V14.01,2013-07-08 10:48:00,
2013-07-08 03:53:00,54.8,49.4,29.89,NNW,341,0.0,3.0,82,0.00,,---,0.00,VWS V14.01,2013-07-08 10:53:00,
2013-07-08 03:58:00,54.6,49.2,29.88,NNW,341,0.0,3.0,82,0.00,,---,0.00,VWS V14.01,2013-07-08 10:58:00,
2013-07-08 04:03:00,54.4,49.3,29.85,NNW,341,2.0,2.0,83,0.00,,---,0.00,VWS V14.01,2013-07-08 11:03:00,
2013-07-08 04:08:00,54.5,49.5,29.90,NNW,341,0.0,3.0,83,0.00,,---,0.00,VWS V14.01,2013-07-08 11:08:00,
2013-07-08 04:13:00,54.5,49.5,29.89,NNW,341,0.0,3.0,83,0.00,,---,0.00,VWS V14.01,2013-07-08 11:13:00,
2013-07-08 04:18:00,54.4,49.3,29.87,NNW,341,0.0,3.0,83,0.00,,---,0.00,VWS V14.01,2013-07-08 11:18:00,
2013-07-08 04:23:00,54.5,49.8,29.89,NNW,341,0.0,3.0,84,0.00,,---,0.00,VWS V14.01,2013-07-08 11:23:00,
2013-07-08 04:28:00,54.5,49.5,29.85,NNW,341,0.0,3.0,83,0.00,,---,0.00,VWS V14.01,2013-07-08 11:28:00,
2013-07-08 04:33:00,54.5,49.5,29.89,NNW,341,1.0,1.0,83,0.00,,---,0.00,VWS V14.01,2013-07-08 11:33:00,
2013-07-08 04:38:00,54.5,49.8,29.86,NNW,341,2.0,2.0,84,0.00,,---,0.00,VWS V14.01,2013-07-08 11:38:00,
2013-07-08 04:43:00,54.3,49.3,29.87,NNW,341,1.0,2.0,83,0.00,,---,0.00,VWS V14.01,2013-07-08 11:43:00,
2013-07-08 04:48:00,54.3,49.3,29.85,NNW,341,0.0,2.0,83,0.00,,---,0.00,VWS V14.01,2013-07-08 11:48:00,
2013-07-08 04:54:00,54.2,49.2,29.89,NNW,341,0.0,2.0,83,0.00,,---,0.00,VWS V14.01,2013-07-08 11:54:00,
2013-07-08 04:59:00,54.1,49.1,29.90,NNW,341,0.0,2.0,83,0.00,,---,0.00,VWS V14.01,2013-07-08 11:59:00,
2013-07-08 05:04:00,54.1,49.1,29.86,NNW,341,0.0,0.0,83,0.00,,---,0.00,VWS V14.01,2013-07-08 12:04:00,
2013-07-08 05:09:00,54.1,49.1,29.91,NNW,341,1.0,1.0,83,0.00,,---,0.00,VWS V14.01,2013-07-08 12:09:00,
2013-07-08 05:14:00,54.0,49.0,29.87,NNW,341,0.0,1.0,83,0.00,,---,0.00,VWS V14.01,2013-07-08 12:14:00,
2013-07-08 05:19:00,54.0,49.0,29.90,NNW,341,0.0,1.0,83,0.00,,---,0.00,VWS V14.01,2013-07-08 12:19:00,
2013-07-08 05:24:00,53.9,49.2,29.86,NNW,341,0.0,3.0,84,0.00,,---,0.00,VWS V14.01,2013-07-08 12:24:00,
2013-07-08 05:29:00,53.9,49.2,29.89,NNW,341,0.0,3.0,84,0.00,,---,0.00,VWS V14.01,2013-07-08 12:29:00,
2013-07-08 05:34:00,53.9,49.2,29.86,NNW,340,0.0,2.0,84,0.00,,---,0.00,VWS V14.01,2013-07-08 12:34:00,
2013-07-08 05:39:00,53.9,49.5,29.90,NNW,341,0.0,2.0,85,0.00,,---,0.00,VWS V14.01,2013-07-08 12:39:00,
2013-07-08 05:44:00,53.9,49.5,29.88,NNW,341,0.0,3.0,85,0.00,,---,0.00,VWS V14.01,2013-07-08 12:44:00,
2013-07-08 05:49:00,53.9,49.2,29.91,NNW,341,0.0,3.0,84,0.00,,---,0.00,VWS V14.01,2013-07-08 12:49:00,
2013-07-08 05:54:00,53.7,48.7,29.89,NNW,341,0.0,3.0,83,0.00,,---,0.00,VWS V14.01,2013-07-08 12:54:00,
2013-07-08 05:59:00,53.8,48.8,29.91,NNW,341,0.0,3.0,83,0.00,,---,0.00,VWS V14.01,2013-07-08 12:59:00,
2013-07-08 06:04:00,53.8,49.1,29.89,NNW,341,0.0,1.0,84,0.00,,---,0.00,VWS V14.01,2013-07-08 13:04:00,
2013-07-08 06:09:00,53.8,49.4,29.88,NNW,341,0.0,3.0,85,0.00,,---,0.00,VWS V14.01,2013-07-08 13:09:00,
2013-07-08 06:15:00,53.8,49.4,29.88,NNW,340,0.0,3.0,85,0.00,,---,0.00,VWS V14.01,2013-07-08 13:15:00,
2013-07-08 06:20:00,53.9,49.8,29.88,NNW,341,0.0,3.0,86,0.00,,---,0.00,VWS V14.01,2013-07-08 13:20:00,
2013-07-08 06:25:00,54.1,50.0,29.90,NNW,341,0.0,3.0,86,0.00,,---,0.00,VWS V14.01,2013-07-08 13:25:00,
2013-07-08 06:30:00,54.2,50.1,29.92,NNW,340,0.0,0.0,86,0.00,,---,0.00,VWS V14.01,2013-07-08 13:30:00,
2013-07-08 06:35:00,54.5,50.4,29.91,NNW,341,0.0,0.0,86,0.00,,---,0.00,VWS V14.01,2013-07-08 13:35:00,
2013-07-08 06:40:00,54.6,50.5,29.91,NNW,341,0.0,0.0,86,0.00,,---,0.00,VWS V14.01,2013-07-08 13:40:00,
2013-07-08 06:45:00,54.6,50.5,29.89,NNW,341,0.0,0.0,86,0.00,,---,0.00,VWS V14.01,2013-07-08 13:45:00,
2013-07-08 06:50:00,54.8,50.7,29.90,NNW,341,0.0,1.0,86,0.00,,---,0.00,VWS V14.01,2013-07-08 13:50:00,
2013-07-08 06:55:00,54.9,50.5,29.92,NNW,341,0.0,2.0,85,0.00,,---,0.00,VWS V14.01,2013-07-08 13:55:00,
2013-07-08 07:00:00,55.0,50.9,29.90,NNW,341,0.0,0.0,86,0.00,,---,0.00,VWS V14.01,2013-07-08 14:00:00,
2013-07-08 07:05:00,55.1,51.0,29.88,NNW,341,0.0,2.0,86,0.00,,---,0.00,VWS V14.01,2013-07-08 14:05:00,
2013-07-08 07:10:00,55.0,50.6,29.90,NNW,341,0.0,3.0,85,0.00,,---,0.00,VWS V14.01,2013-07-08 14:10:00,
2013-07-08 07:15:00,55.2,51.1,29.91,NNW,341,0.0,3.0,86,0.00,,---,0.00,VWS V14.01,2013-07-08 14:15:00,
2013-07-08 07:20:00,55.4,51.0,29.89,NNW,341,0.0,3.0,85,0.00,,---,0.00,VWS V14.01,2013-07-08 14:20:00,
2013-07-08 07:26:00,55.5,51.1,29.93,NNW,341,1.0,3.0,85,0.00,,---,0.00,VWS V14.01,2013-07-08 14:26:00,
2013-07-08 07:31:00,55.7,51.3,29.93,NNW,341,0.0,0.0,85,0.00,,---,0.00,VWS V14.01,2013-07-08 14:31:00,
2013-07-08 07:36:00,55.9,51.5,29.92,NNW,341,0.0,2.0,85,0.00,,---,0.00,VWS V14.01,2013-07-08 14:36:00,
2013-07-08 07:41:00,56.1,51.7,29.93,NNW,341,0.0,3.0,85,0.00,,---,0.00,VWS V14.01,2013-07-08 14:41:00,
2013-07-08 07:46:00,56.2,51.4,29.93,NNW,341,0.0,3.0,84,0.00,,---,0.00,VWS V14.01,2013-07-08 14:46:00,
2013-07-08 07:51:00,56.6,51.5,29.93,NNW,341,0.0,3.0,83,0.00,,---,0.00,VWS V14.01,2013-07-08 14:51:00,
2013-07-08 07:56:00,56.8,51.7,29.90,NNW,341,0.0,3.0,83,0.00,,---,0.00,VWS V14.01,2013-07-08 14:56:00,
2013-07-08 08:01:00,57.0,51.6,29.92,NNW,341,0.0,3.0,82,0.00,,---,0.00,VWS V14.01,2013-07-08 15:01:00,
2013-07-08 08:06:00,57.1,51.7,29.92,NNW,341,0.0,3.0,82,0.00,,---,0.00,VWS V14.01,2013-07-08 15:06:00,
2013-07-08 08:11:00,57.1,51.0,29.91,NNW,341,0.0,3.0,80,0.00,,---,0.00,VWS V14.01,2013-07-08 15:11:00,
2013-07-08 08:16:00,57.4,51.6,29.90,NNW,341,0.0,3.0,81,0.00,,---,0.00,VWS V14.01,2013-07-08 15:16:00,
2013-07-08 08:21:00,57.6,51.8,29.91,NNW,340,0.0,3.0,81,0.00,,---,0.00,VWS V14.01,2013-07-08 15:21:00,
2013-07-08 08:26:00,57.8,52.0,29.93,NNW,340,0.0,3.0,81,0.00,,---,0.00,VWS V14.01,2013-07-08 15:26:00,
2013-07-08 08:31:00,58.4,52.3,29.91,NNW,341,1.0,3.0,80,0.00,,---,0.00,VWS V14.01,2013-07-08 15:31:00,
2013-07-08 08:37:00,58.8,52.7,29.92,NNW,341,0.0,4.0,80,0.00,,---,0.00,VWS V14.01,2013-07-08 15:37:00,
2013-07-08 08:42:00,59.0,52.5,29.92,NNW,341,2.0,4.0,79,0.00,,---,0.00,VWS V14.01,2013-07-08 15:42:00,
2013-07-08 08:47:00,59.4,52.9,29.90,NNW,341,0.0,4.0,79,0.00,,---,0.00,VWS V14.01,2013-07-08 15:47:00,
2013-07-08 08:52:00,60.0,52.8,29.92,NNW,341,0.0,4.0,77,0.00,,---,0.00,VWS V14.01,2013-07-08 15:52:00,
2013-07-08 08:57:00,60.5,52.9,29.94,NNW,341,0.0,4.0,76,0.00,,---,0.00,VWS V14.01,2013-07-08 15:57:00,
2013-07-08 09:02:00,61.0,53.0,29.92,NNW,341,0.0,2.0,75,0.00,,---,0.00,VWS V14.01,2013-07-08 16:02:00,
2013-07-08 09:07:00,61.3,53.3,29.90,NNW,341,1.0,3.0,75,0.00,,---,0.00,VWS V14.01,2013-07-08 16:07:00,
2013-07-08 09:12:00,61.6,53.2,29.91,NNW,341,0.0,3.0,74,0.00,,---,0.00,VWS V14.01,2013-07-08 16:12:00,
2013-07-08 09:17:00,61.9,52.8,29.93,NNW,341,0.0,3.0,72,0.00,,---,0.00,VWS V14.01,2013-07-08 16:17:00,
2013-07-08 09:22:00,62.1,53.3,29.93,NNW,341,2.0,3.0,73,0.00,,---,0.00,VWS V14.01,2013-07-08 16:22:00,
2013-07-08 09:27:00,62.2,53.5,29.94,NNW,341,3.0,3.0,73,0.00,,---,0.00,VWS V14.01,2013-07-08 16:27:00,
2013-07-08 09:32:00,62.3,53.5,29.92,NNW,341,0.0,0.0,73,0.00,,---,0.00,VWS V14.01,2013-07-08 16:32:00,
2013-07-08 09:37:00,63.0,54.2,29.92,NNW,341,1.0,3.0,73,0.00,,---,0.00,VWS V14.01,2013-07-08 16:37:00,
2013-07-08 09:42:00,63.5,53.9,29.90,NNW,340,0.0,3.0,71,0.00,,---,0.00,VWS V14.01,2013-07-08 16:42:00,
2013-07-08 09:47:00,64.0,54.4,29.94,NNW,341,1.0,3.0,71,0.00,,---,0.00,VWS V14.01,2013-07-08 16:47:00,
2013-07-08 09:52:00,64.3,53.9,29.90,NNW,341,1.0,3.0,69,0.00,,---,0.00,VWS V14.01,2013-07-08 16:52:00,
2013-07-08 09:58:00,64.9,54.1,29.93,NNW,341,3.0,5.0,68,0.00,,---,0.00,VWS V14.01,2013-07-08 16:58:00,
2013-07-08 10:03:00,65.7,54.9,29.90,NNW,341,2.0,4.0,68,0.00,,---,0.00,VWS V14.01,2013-07-08 17:03:00,
2013-07-08 10:08:00,66.0,54.3,29.92,NNW,341,1.0,5.0,66,0.00,,---,0.00,VWS V14.01,2013-07-08 17:08:00,
2013-07-08 10:13:00,67.0,55.3,29.94,NNW,341,0.0,5.0,66,0.00,,---,0.00,VWS V14.01,2013-07-08 17:13:00,
2013-07-08 10:18:00,67.4,54.8,29.91,NNW,341,0.0,5.0,64,0.00,,---,0.00,VWS V14.01,2013-07-08 17:18:00,
2013-07-08 10:23:00,67.9,55.3,29.93,NNW,341,1.0,5.0,64,0.00,,---,0.00,VWS V14.01,2013-07-08 17:23:00,
2013-07-08 10:29:00,68.0,54.5,29.93,NNW,341,3.0,5.0,62,0.00,,---,0.00,VWS V14.01,2013-07-08 17:29:00,
2013-07-08 10:34:00,68.3,54.8,29.93,NNW,341,2.0,4.0,62,0.00,,---,0.00,VWS V14.01,2013-07-08 17:34:00,
2013-07-08 10:39:00,68.5,54.5,29.91,NNW,341,2.0,5.0,61,0.00,,---,0.00,VWS V14.01,2013-07-08 17:39:00,
2013-07-08 10:44:00,68.9,55.4,29.95,NNW,341,2.0,5.0,62,0.00,,---,0.00,VWS V14.01,2013-07-08 17:44:00,
2013-07-08 10:49:00,69.0,54.5,29.95,NNW,341,3.0,5.0,60,0.00,,---,0.00,VWS V14.01,2013-07-08 17:49:00,
2013-07-08 10:54:00,69.3,54.8,29.91,NNW,341,1.0,5.0,60,0.00,,---,0.00,VWS V14.01,2013-07-08 17:54:00,
2013-07-08 10:59:00,69.8,54.4,29.91,NNW,341,2.0,5.0,58,0.00,,---,0.00,VWS V14.01,2013-07-08 17:59:00,
2013-07-08 11:04:00,70.3,54.8,29.91,NNW,341,3.0,4.0,58,0.00,,---,0.00,VWS V14.01,2013-07-08 18:04:00,
2013-07-08 11:10:00,70.6,55.1,29.91,NNW,341,2.0,6.0,58,0.00,,---,0.00,VWS V14.01,2013-07-08 18:10:00,
2013-07-08 11:16:00,71.2,54.7,29.94,NNW,340,1.0,6.0,56,0.00,,---,0.00,VWS V14.01,2013-07-08 18:16:00,
2013-07-08 11:21:00,71.7,54.7,29.94,NNW,341,2.0,6.0,55,0.00,,---,0.00,VWS V14.01,2013-07-08 18:21:00,
2013-07-08 11:26:00,71.8,54.8,29.94,NNW,341,2.0,6.0,55,0.00,,---,0.00,VWS V14.01,2013-07-08 18:26:00,
2013-07-08 11:31:00,72.2,55.2,29.90,NNW,341,3.0,3.0,55,0.00,,---,0.00,VWS V14.01,2013-07-08 18:31:00,
2013-07-08 11:36:00,72.7,55.1,29.92,NNW,341,0.0,4.0,54,0.00,,---,0.00,VWS V14.01,2013-07-08 18:36:00,
2013-07-08 11:42:00,73.1,54.5,29.93,NNW,341,2.0,4.0,52,0.00,,---,0.00,VWS V14.01,2013-07-08 18:42:00,
2013-07-08 11:47:00,73.8,55.6,29.95,NNW,341,1.0,5.0,53,0.00,,---,0.00,VWS V14.01,2013-07-08 18:47:00,
2013-07-08 11:52:00,74.2,53.8,29.93,NNW,331,2.0,6.0,49,0.00,,---,0.00,VWS V14.01,2013-07-08 18:52:00,
2013-07-08 11:58:00,74.6,54.2,29.90,NNW,330,0.0,6.0,49,0.00,,---,0.00,VWS V14.01,2013-07-08 18:58:00,
2013-07-08 12:03:00,74.9,53.9,29.91,NNW,331,1.0,3.0,48,0.00,,---,0.00,VWS V14.01,2013-07-08 19:03:00,
2013-07-08 12:08:00,75.4,54.4,29.91,North,1,3.0,7.0,48,0.00,,---,0.00,VWS V14.01,2013-07-08 19:08:00,
2013-07-08 12:13:00,76.0,54.9,29.90,North,349,2.0,7.0,48,0.00,,---,0.00,VWS V14.01,2013-07-08 19:13:00,
2013-07-08 12:18:00,76.3,54.6,29.93,North,349,3.0,7.0,47,0.00,,---,0.00,VWS V14.01,2013-07-08 19:18:00,
2013-07-08 12:23:00,76.7,54.4,29.90,North,349,0.0,7.0,46,0.00,,---,0.00,VWS V14.01,2013-07-08 19:23:00,
2013-07-08 12:28:00,76.9,53.3,29.93,North,349,1.0,7.0,44,0.00,,---,0.00,VWS V14.01,2013-07-08 19:28:00,
2013-07-08 12:34:00,77.2,53.0,29.92,North,349,5.0,6.0,43,0.00,,---,0.00,VWS V14.01,2013-07-08 19:34:00,
2013-07-08 12:40:00,77.7,53.5,29.93,NNW,334,3.0,8.0,43,0.00,,---,0.00,VWS V14.01,2013-07-08 19:40:00,
2013-07-08 12:45:00,78.2,52.6,29.92,NNW,328,3.0,8.0,41,0.00,,---,0.00,VWS V14.01,2013-07-08 19:45:00,
2013-07-08 12:50:00,78.5,52.9,29.93,NNW,333,4.0,8.0,41,0.00,,---,0.00,VWS V14.01,2013-07-08 19:50:00,
2013-07-08 12:55:00,78.7,52.4,29.94,North,6,1.0,8.0,40,0.00,,---,0.00,VWS V14.01,2013-07-08 19:55:00,
2013-07-08 13:01:00,79.1,51.3,29.95,NNW,344,2.0,4.0,38,0.00,,---,0.00,VWS V14.01,2013-07-08 20:01:00,
2013-07-08 13:07:00,79.6,52.5,29.94,NNW,343,4.0,6.0,39,0.00,,---,0.00,VWS V14.01,2013-07-08 20:07:00,
2013-07-08 13:13:00,79.8,52.0,29.96,NNW,341,2.0,8.0,38,0.00,,---,0.00,VWS V14.01,2013-07-08 20:13:00,
2013-07-08 13:18:00,80.6,52.7,29.91,NNW,327,2.0,8.0,38,0.00,,---,0.00,VWS V14.01,2013-07-08 20:18:00,
2013-07-08 13:23:00,80.9,50.7,29.91,North,358,3.0,8.0,35,0.00,,---,0.00,VWS V14.01,2013-07-08 20:23:00,
2013-07-08 13:28:00,81.3,52.6,29.92,North,357,3.0,8.0,37,0.00,,---,0.00,VWS V14.01,2013-07-08 20:28:00,
2013-07-08 13:34:00,82.1,54.0,29.91,NW,326,3.0,6.0,38,0.00,,---,0.00,VWS V14.01,2013-07-08 20:34:00,
2013-07-08 13:39:00,82.4,51.2,29.91,North,353,3.0,7.0,34,0.00,,---,0.00,VWS V14.01,2013-07-08 20:39:00,
2013-07-08 13:44:00,82.6,51.4,29.93,North,355,3.0,7.0,34,0.00,,---,0.00,VWS V14.01,2013-07-08 20:44:00,
2013-07-08 13:49:00,83.3,53.6,29.92,SW,230,2.0,7.0,36,0.00,,---,0.00,VWS V14.01,2013-07-08 20:49:00,
2013-07-08 13:55:00,83.8,53.3,29.91,NW,323,3.0,7.0,35,0.00,,---,0.00,VWS V14.01,2013-07-08 20:55:00,
2013-07-08 14:00:00,83.9,51.8,29.92,NNW,336,2.0,4.0,33,0.00,,---,0.00,VWS V14.01,2013-07-08 21:00:00,
2013-07-08 14:05:00,83.9,51.8,29.93,NW,311,0.0,5.0,33,0.00,,---,0.00,VWS V14.01,2013-07-08 21:05:00,
2013-07-08 14:10:00,84.4,52.2,29.90,NW,323,2.0,5.0,33,0.00,,---,0.00,VWS V14.01,2013-07-08 21:10:00,
2013-07-08 14:16:00,84.7,52.4,29.93,NNW,346,2.0,6.0,33,0.00,,---,0.00,VWS V14.01,2013-07-08 21:16:00,
2013-07-08 14:21:00,85.2,52.9,29.90,NNW,345,2.0,6.0,33,0.00,,---,0.00,VWS V14.01,2013-07-08 21:21:00,
2013-07-08 14:26:00,85.2,52.0,29.91,West,271,2.0,7.0,32,0.00,,---,0.00,VWS V14.01,2013-07-08 21:26:00,
2013-07-08 14:32:00,85.3,51.3,29.93,West,271,1.0,6.0,31,0.00,,---,0.00,VWS V14.01,2013-07-08 21:32:00,
2013-07-08 14:37:00,85.5,51.4,29.92,West,271,0.0,6.0,31,0.00,,---,0.00,VWS V14.01,2013-07-08 21:37:00,
2013-07-08 14:43:00,85.9,52.7,29.90,West,271,2.0,6.0,32,0.00,,---,0.00,VWS V14.01,2013-07-08 21:43:00,
2013-07-08 14:48:00,86.2,51.2,29.89,West,268,5.0,7.0,30,0.00,,---,0.00,VWS V14.01,2013-07-08 21:48:00,
2013-07-08 14:54:00,86.8,54.3,29.90,West,267,3.0,7.0,33,0.00,,---,0.00,VWS V14.01,2013-07-08 21:54:00,
2013-07-08 14:59:00,86.9,52.7,29.92,West,267,2.0,7.0,31,0.00,,---,0.00,VWS V14.01,2013-07-08 21:59:00,
2013-07-08 15:04:00,87.0,50.0,29.90,West,267,3.0,5.0,28,0.00,,---,0.00,VWS V14.01,2013-07-08 22:04:00,
2013-07-08 15:09:00,87.2,50.2,29.90,West,267,3.0,5.0,28,0.00,,---,0.00,VWS V14.01,2013-07-08 22:09:00,
2013-07-08 15:14:00,87.4,51.3,29.93,West,267,2.0,5.0,29,0.00,,---,0.00,VWS V14.01,2013-07-08 22:14:00,
2013-07-08 15:19:00,87.6,50.5,29.92,WSW,239,4.0,5.0,28,0.00,,---,0.00,VWS V14.01,2013-07-08 22:19:00,
2013-07-08 15:24:00,88.2,52.0,29.91,SW,228,7.0,7.0,29,0.00,,---,0.00,VWS V14.01,2013-07-08 22:24:00,
2013-07-08 15:29:00,88.5,53.1,29.91,SW,235,2.0,8.0,30,0.00,,---,0.00,VWS V14.01,2013-07-08 22:29:00,
2013-07-08 15:34:00,88.7,51.4,29.92,WSW,243,2.0,9.0,28,0.00,,---,0.00,VWS V14.01,2013-07-08 22:34:00,
2013-07-08 15:39:00,88.7,51.4,29.91,WSW,241,2.0,9.0,28,0.00,,---,0.00,VWS V14.01,2013-07-08 22:39:00,
2013-07-08 15:45:00,89.0,51.7,29.90,SW,232,2.0,9.0,28,0.00,,---,0.00,VWS V14.01,2013-07-08 22:45:00,
2013-07-08 15:50:00,88.9,51.6,29.92,SW,236,1.0,9.0,28,0.00,,---,0.00,VWS V14.01,2013-07-08 22:50:00,
2013-07-08 15:56:00,88.8,50.5,29.88,SW,232,3.0,10.0,27,0.00,,---,0.00,VWS V14.01,2013-07-08 22:56:00,
2013-07-08 16:01:00,88.7,51.4,29.90,SW,233,1.0,5.0,28,0.00,,---,0.00,VWS V14.01,2013-07-08 23:01:00,
2013-07-08 16:06:00,88.9,51.6,29.89,WSW,237,5.0,7.0,28,0.00,,---,0.00,VWS V14.01,2013-07-08 23:06:00,
2013-07-08 16:12:00,88.7,51.4,29.90,WSW,238,2.0,7.0,28,0.00,,---,0.00,VWS V14.01,2013-07-08 23:12:00,
2013-07-08 16:17:00,88.7,50.5,29.88,WSW,240,2.0,7.0,27,0.00,,---,0.00,VWS V14.01,2013-07-08 23:17:00,
2013-07-08 16:23:00,89.0,51.7,29.89,WSW,243,2.0,7.0,28,0.00,,---,0.00,VWS V14.01,2013-07-08 23:23:00,
2013-07-08 16:28:00,88.7,51.4,29.90,WSW,243,1.0,7.0,28,0.00,,---,0.00,VWS V14.01,2013-07-08 23:28:00,
2013-07-08 16:34:00,88.9,50.6,29.91,SW,229,1.0,8.0,27,0.00,,---,0.00,VWS V14.01,2013-07-08 23:34:00,
2013-07-08 16:39:00,88.7,50.5,29.90,SW,233,2.0,8.0,27,0.00,,---,0.00,VWS V14.01,2013-07-08 23:39:00,
2013-07-08 16:44:00,88.6,50.4,29.88,WSW,237,5.0,8.0,27,0.00,,---,0.00,VWS V14.01,2013-07-08 23:44:00,
2013-07-08 16:49:00,89.0,48.7,29.90,WSW,248,4.0,10.0,25,0.00,,---,0.00,VWS V14.01,2013-07-08 23:49:00,
2013-07-08 16:54:00,88.9,50.6,29.90,WSW,248,1.0,10.0,27,0.00,,---,0.00,VWS V14.01,2013-07-08 23:54:00,
2013-07-08 17:00:00,88.7,50.5,29.91,WSW,237,4.0,4.0,27,0.00,,---,0.00,VWS V14.01,2013-07-09 00:00:00,
2013-07-08 17:05:00,88.7,50.5,29.89,WSW,237,3.0,7.0,27,0.00,,---,0.00,VWS V14.01,2013-07-09 00:05:00,
2013-07-08 17:10:00,88.8,51.5,29.91,WSW,237,2.0,7.0,28,0.00,,---,0.00,VWS V14.01,2013-07-09 00:10:00,
2013-07-08 17:15:00,88.7,50.5,29.88,WSW,237,4.0,7.0,27,0.00,,---,0.00,VWS V14.01,2013-07-09 00:15:00,
2013-07-08 17:21:00,88.7,50.5,29.89,WSW,240,2.0,7.0,27,0.00,,---,0.00,VWS V14.01,2013-07-09 00:21:00,
2013-07-08 17:26:00,88.7,50.5,29.91,WSW,243,3.0,8.0,27,0.00,,---,0.00,VWS V14.01,2013-07-09 00:26:00,
2013-07-08 17:31:00,88.6,50.4,29.89,WSW,241,3.0,4.0,27,0.00,,---,0.00,VWS V14.01,2013-07-09 00:31:00,
2013-07-08 17:36:00,88.6,53.2,29.89,WSW,241,2.0,6.0,30,0.00,,---,0.00,VWS V14.01,2013-07-09 00:36:00,
2013-07-08 17:41:00,88.6,53.2,29.91,WSW,241,4.0,6.0,30,0.00,,---,0.00,VWS V14.01,2013-07-09 00:41:00,
2013-07-08 17:47:00,88.7,51.4,29.87,WSW,241,2.0,6.0,28,0.00,,---,0.00,VWS V14.01,2013-07-09 00:47:00,
2013-07-08 17:52:00,88.1,50.9,29.87,WSW,241,4.0,6.0,28,0.00,,---,0.00,VWS V14.01,2013-07-09 00:52:00,
2013-07-08 17:58:00,87.8,54.3,29.90,WSW,241,3.0,6.0,32,0.00,,---,0.00,VWS V14.01,2013-07-09 00:58:00,
2013-07-08 18:03:00,87.2,53.8,29.86,WSW,241,3.0,5.0,32,0.00,,---,0.00,VWS V14.01,2013-07-09 01:03:00,
2013-07-08 18:08:00,86.8,54.3,29.88,WSW,241,2.0,5.0,33,0.00,,---,0.00,VWS V14.01,2013-07-09 01:08:00,
2013-07-08 18:14:00,86.4,53.1,29.91,WSW,241,2.0,5.0,32,0.00,,---,0.00,VWS V14.01,2013-07-09 01:14:00,
2013-07-08 18:20:00,86.0,53.6,29.89,WSW,241,3.0,5.0,33,0.00,,---,0.00,VWS V14.01,2013-07-09 01:20:00,
2013-07-08 18:25:00,85.5,53.1,29.89,WSW,248,2.0,5.0,33,0.00,,---,0.00,VWS V14.01,2013-07-09 01:25:00,
2013-07-08 18:30:00,85.6,54.0,29.90,West,274,4.0,5.0,34,0.00,,---,0.00,VWS V14.01,2013-07-09 01:30:00,
2013-07-08 18:36:00,85.5,54.8,29.89,NW,309,3.0,7.0,35,0.00,,---,0.00,VWS V14.01,2013-07-09 01:36:00,
2013-07-08 18:41:00,85.5,53.1,29.89,NW,311,0.0,7.0,33,0.00,,---,0.00,VWS V14.01,2013-07-09 01:41:00,
2013-07-08 18:47:00,85.1,54.4,29.89,NW,310,3.0,7.0,35,0.00,,---,0.00,VWS V14.01,2013-07-09 01:47:00,
2013-07-08 18:52:00,84.7,53.3,29.91,NW,310,2.0,7.0,34,0.00,,---,0.00,VWS V14.01,2013-07-09 01:52:00,
2013-07-08 18:57:00,84.4,53.0,29.88,NW,311,0.0,7.0,34,0.00,,---,0.00,VWS V14.01,2013-07-09 01:57:00,
2013-07-08 19:02:00,84.2,53.6,29.88,NW,310,3.0,4.0,35,0.00,,---,0.00,VWS V14.01,2013-07-09 02:02:00,
2013-07-08 19:07:00,83.8,54.0,29.91,NW,310,0.0,4.0,36,0.00,,---,0.00,VWS V14.01,2013-07-09 02:07:00,
2013-07-08 19:12:00,83.4,53.7,29.91,NW,310,1.0,4.0,36,0.00,,---,0.00,VWS V14.01,2013-07-09 02:12:00,
2013-07-08 19:18:00,82.8,53.9,29.91,NW,311,0.0,4.0,37,0.00,,---,0.00,VWS V14.01,2013-07-09 02:18:00,
2013-07-08 19:23:00,82.0,53.9,29.89,NW,310,0.0,4.0,38,0.00,,---,0.00,VWS V14.01,2013-07-09 02:23:00,
2013-07-08 19:28:00,81.3,53.3,29.90,NW,310,3.0,5.0,38,0.00,,---,0.00,VWS V14.01,2013-07-09 02:28:00,
2013-07-08 19:33:00,80.7,52.8,29.92,NW,310,5.0,5.0,38,0.00,,---,0.00,VWS V14.01,2013-07-09 02:33:00,
2013-07-08 19:38:00,80.1,52.2,29.92,NW,311,4.0,6.0,38,0.00,,---,0.00,VWS V14.01,2013-07-09 02:38:00,
2013-07-08 19:44:00,79.6,51.8,29.92,NW,320,4.0,6.0,38,0.00,,---,0.00,VWS V14.01,2013-07-09 02:44:00,
2013-07-08 19:49:00,78.8,51.1,29.92,NNW,330,5.0,9.0,38,0.00,,---,0.00,VWS V14.01,2013-07-09 02:49:00,
2013-07-08 19:54:00,78.3,49.2,29.90,NNW,336,7.0,9.0,36,0.00,,---,0.00,VWS V14.01,2013-07-09 02:54:00,
2013-07-08 19:59:00,77.8,48.7,29.90,NNW,341,3.0,9.0,36,0.00,,---,0.00,VWS V14.01,2013-07-09 02:59:00,
2013-07-08 20:04:00,77.1,48.1,29.91,North,355,5.0,25.0,36,0.00,,---,0.00,VWS V14.01,2013-07-09 03:04:00,
2013-07-08 20:09:00,76.5,48.3,29.91,North,353,5.0,25.0,37,0.00,,---,0.00,VWS V14.01,2013-07-09 03:09:00,
2013-07-08 20:14:00,76.1,48.0,29.92,North,353,0.0,25.0,37,0.00,,---,0.00,VWS V14.01,2013-07-09 03:14:00,
2013-07-08 20:20:00,75.5,48.1,29.91,North,353,1.0,25.0,38,0.00,,---,0.00,VWS V14.01,2013-07-09 03:20:00,
2013-07-08 20:25:00,75.1,47.8,29.93,North,353,2.0,25.0,38,0.00,,---,0.00,VWS V14.01,2013-07-09 03:25:00,
2013-07-08 20:30:00,74.8,46.8,29.92,North,353,2.0,3.0,37,0.00,,---,0.00,VWS V14.01,2013-07-09 03:30:00,
2013-07-08 20:35:00,74.4,46.5,29.89,North,353,2.0,5.0,37,0.00,,---,0.00,VWS V14.01,2013-07-09 03:35:00,
2013-07-08 20:40:00,74.5,45.8,29.93,North,353,1.0,5.0,36,0.00,,---,0.00,VWS V14.01,2013-07-09 03:40:00,
2013-07-08 20:45:00,74.3,46.4,29.91,North,353,2.0,5.0,37,0.00,,---,0.00,VWS V14.01,2013-07-09 03:45:00,
2013-07-08 20:50:00,74.1,46.2,29.92,North,353,2.0,5.0,37,0.00,,---,0.00,VWS V14.01,2013-07-09 03:50:00,
2013-07-08 20:55:00,74.1,46.2,29.94,North,353,2.0,5.0,37,0.00,,---,0.00,VWS V14.01,2013-07-09 03:55:00,
2013-07-08 21:01:00,73.9,46.7,29.92,North,353,2.0,5.0,38,0.00,,---,0.00,VWS V14.01,2013-07-09 04:01:00,
2013-07-08 21:02:00,73.9,46.7,29.94,North,353,2.0,5.0,38,0.00,,---,0.00,VWS V14.01,2013-07-09 04:02:00,
2013-07-08 21:07:00,73.5,47.7,29.90,North,353,2.0,5.0,40,0.00,,---,0.00,VWS V14.01,2013-07-09 04:07:00,
2013-07-08 21:12:00,73.1,48.7,29.95,North,353,2.0,5.0,42,0.00,,---,0.00,VWS V14.01,2013-07-09 04:12:00,
2013-07-08 21:17:00,72.4,49.3,29.91,North,353,3.0,5.0,44,0.00,,---,0.00,VWS V14.01,2013-07-09 04:17:00,
2013-07-08 21:22:00,72.0,49.5,29.91,North,353,4.0,7.0,45,0.00,,---,0.00,VWS V14.01,2013-07-09 04:22:00,
2013-07-08 21:27:00,71.7,50.4,29.95,North,353,2.0,7.0,47,0.00,,---,0.00,VWS V14.01,2013-07-09 04:27:00,
2013-07-08 21:32:00,71.2,50.5,29.94,North,353,3.0,3.0,48,0.00,,---,0.00,VWS V14.01,2013-07-09 04:32:00,
2013-07-08 21:37:00,70.9,50.8,29.92,North,353,3.0,7.0,49,0.00,,---,0.00,VWS V14.01,2013-07-09 04:37:00,
2013-07-08 21:42:00,70.6,51.1,29.94,North,353,3.0,7.0,50,0.00,,---,0.00,VWS V14.01,2013-07-09 04:42:00,
2013-07-08 21:47:00,70.3,50.8,29.93,North,353,2.0,7.0,50,0.00,,---,0.00,VWS V14.01,2013-07-09 04:47:00,
2013-07-08 21:52:00,70.2,51.2,29.96,North,353,5.0,7.0,51,0.00,,---,0.00,VWS V14.01,2013-07-09 04:52:00,
2013-07-08 21:57:00,70.0,51.1,29.95,North,353,3.0,7.0,51,0.00,,---,0.00,VWS V14.01,2013-07-09 04:57:00,
2013-07-08 22:03:00,70.1,51.2,29.94,North,353,4.0,5.0,51,0.00,,---,0.00,VWS V14.01,2013-07-09 05:03:00,
2013-07-08 22:08:00,69.8,51.4,29.93,North,353,1.0,5.0,52,0.00,,---,0.00,VWS V14.01,2013-07-09 05:08:00,
2013-07-08 22:13:00,69.5,51.1,29.92,North,353,4.0,5.0,52,0.00,,---,0.00,VWS V14.01,2013-07-09 05:13:00,
2013-07-08 22:18:00,69.4,51.5,29.95,North,353,3.0,5.0,53,0.00,,---,0.00,VWS V14.01,2013-07-09 05:18:00,
2013-07-08 22:23:00,69.2,50.8,29.95,North,353,2.0,5.0,52,0.00,,---,0.00,VWS V14.01,2013-07-09 05:23:00,
2013-07-08 22:28:00,69.0,51.2,29.94,North,353,2.0,5.0,53,0.00,,---,0.00,VWS V14.01,2013-07-09 05:28:00,
2013-07-08 22:33:00,68.7,51.4,29.95,North,353,1.0,4.0,54,0.00,,---,0.00,VWS V14.01,2013-07-09 05:33:00,
2013-07-08 22:38:00,68.5,51.7,29.94,North,353,2.0,4.0,55,0.00,,---,0.00,VWS V14.01,2013-07-09 05:38:00,
2013-07-08 22:43:00,68.2,51.9,29.95,North,353,2.0,4.0,56,0.00,,---,0.00,VWS V14.01,2013-07-09 05:43:00,
2013-07-08 22:48:00,67.9,51.6,29.95,North,353,2.0,5.0,56,0.00,,---,0.00,VWS V14.01,2013-07-09 05:48:00,
2013-07-08 22:53:00,67.7,51.9,29.95,North,353,1.0,5.0,57,0.00,,---,0.00,VWS V14.01,2013-07-09 05:53:00,
2013-07-08 22:58:00,67.5,52.2,29.95,North,353,1.0,5.0,58,0.00,,---,0.00,VWS V14.01,2013-07-09 05:58:00,
2013-07-08 23:03:00,67.6,51.8,29.96,North,353,3.0,3.0,57,0.00,,---,0.00,VWS V14.01,2013-07-09 06:03:00,
2013-07-08 23:08:00,67.5,52.2,29.95,North,353,0.0,5.0,58,0.00,,---,0.00,VWS V14.01,2013-07-09 06:08:00,
2013-07-08 23:13:00,67.5,52.2,29.95,North,353,2.0,5.0,58,0.00,,---,0.00,VWS V14.01,2013-07-09 06:13:00,
2013-07-08 23:18:00,67.5,52.2,29.95,North,353,4.0,5.0,58,0.00,,---,0.00,VWS V14.01,2013-07-09 06:18:00,
2013-07-08 23:24:00,67.4,52.1,29.95,North,353,2.0,5.0,58,0.00,,---,0.00,VWS V14.01,2013-07-09 06:24:00,
2013-07-08 23:29:00,67.4,52.1,29.94,North,353,0.0,5.0,58,0.00,,---,0.00,VWS V14.01,2013-07-09 06:29:00,
2013-07-08 23:34:00,67.1,52.3,29.97,North,353,0.0,5.0,59,0.00,,---,0.00,VWS V14.01,2013-07-09 06:34:00,
2013-07-08 23:39:00,67.0,52.2,29.95,North,353,2.0,5.0,59,0.00,,---,0.00,VWS V14.01,2013-07-09 06:39:00,
2013-07-08 23:44:00,66.9,52.1,29.97,North,353,0.0,5.0,59,0.00,,---,0.00,VWS V14.01,2013-07-09 06:44:00,
2013-07-08 23:49:00,66.7,52.4,29.97,North,353,0.0,5.0,60,0.00,,---,0.00,VWS V14.01,2013-07-09 06:49:00,
2013-07-08 23:54:00,66.6,52.8,29.97,North,353,0.0,5.0,61,0.00,,---,0.00,VWS V14.01,2013-07-09 06:54:00,
2013-07-08 23:59:00,66.4,52.1,29.96,North,353,0.0,5.0,60,0.00,,---,0.00,VWS V14.01,2013-07-09 06:59:00,